When you browse on this site, cookies collect data to enhance your experience and personalize the content and advertising you see.
Visit our Privacy Policy to learn more. By continuing to use the site, you agree to this use of cookies and data.
  • en Belgique
  • Liste des pays
  • À 7 jours
  • Température de l'eau
  • Carte satellitaire
  • Carte météo
  • Widgets météo
  • user-avatar
    Se connecter

    Météo par heure à Zhitischi

    Ce jour, 23 Mars, Samedi

    Heure Température Précipitation Vent Pression Humidité
    00:00 -1°C° 0.1 mm 5 m/s 745 mmHg 89%
    01:00 -1°C° 0.1 mm 5 m/s 745 mmHg 90%
    02:00 -1°C° 0 mm 4 m/s 746 mmHg 92%
    03:00 0°C° 0 mm 3 m/s 747 mmHg 92%
    04:00 -1°C° 0 mm 3 m/s 748 mmHg 93%
    05:00 -1°C° 0 mm 3 m/s 749 mmHg 94%
    06:00 -1°C° 0 mm 2 m/s 749 mmHg 95%
    07:00 -1°C° 0 mm 2 m/s 750 mmHg 95%
    08:00 +1°C° 0 mm 2 m/s 750 mmHg 96%
    09:00 +1°C° 0 mm 2 m/s 750 mmHg 95%
    10:00 +3°C° 0 mm 1 m/s 750 mmHg 93%
    11:00 +3°C° 0 mm 1 m/s 750 mmHg 92%
    12:00 +3°C° 0 mm 1 m/s 750 mmHg 90%
    13:00 +3°C° 0 mm 1 m/s 750 mmHg 89%
    14:00 +2°C° 0 mm 0 m/s 750 mmHg 87%
    15:00 +3°C° 0 mm 1 m/s 750 mmHg 88%
    16:00 +3°C° 0 mm 1 m/s 749 mmHg 89%
    17:00 +3°C° 0 mm 1 m/s 749 mmHg 89%
    18:00 +2°C° 0 mm 1 m/s 748 mmHg 90%
    19:00 -1°C° 0 mm 2 m/s 748 mmHg 91%
    20:00 -2°C° 0 mm 2 m/s 748 mmHg 92%
    21:00 -2°C° 0 mm 3 m/s 747 mmHg 92%
    22:00 -2°C° 0 mm 3 m/s 746 mmHg 91%
    23:00 -3°C° 0 mm 4 m/s 746 mmHg 90%

    Demain, 24 Mars, Dimanche

    Heure Température Précipitation Vent Pression Humidité
    00:00 -2°C° 0 mm 4 m/s 745 mmHg 89%
    01:00 -2°C° 0 mm 4 m/s 744 mmHg 88%
    02:00 -2°C° 0 mm 4 m/s 743 mmHg 87%
    03:00 -2°C° 0.3 mm 5 m/s 742 mmHg 88%
    04:00 -2°C° 0.3 mm 5 m/s 742 mmHg 89%
    05:00 -2°C° 0.3 mm 5 m/s 741 mmHg 90%
    06:00 -1°C° 0.4 mm 4 m/s 740 mmHg 91%
    07:00 -1°C° 0.4 mm 4 m/s 740 mmHg 92%
    08:00 -1°C° 0.4 mm 4 m/s 739 mmHg 92%
    09:00 0°C° 0 mm 4 m/s 739 mmHg 92%
    10:00 +1°C° 0 mm 3 m/s 739 mmHg 91%
    11:00 +2°C° 0 mm 3 m/s 738 mmHg 91%
    12:00 +1°C° 0.4 mm 4 m/s 738 mmHg 88%
    13:00 +1°C° 0.4 mm 4 m/s 738 mmHg 86%
    14:00 +1°C° 0.4 mm 5 m/s 738 mmHg 84%
    15:00 +1°C° 0.1 mm 4 m/s 738 mmHg 83%
    16:00 +1°C° 0.1 mm 3 m/s 738 mmHg 83%
    17:00 +1°C° 0.1 mm 3 m/s 738 mmHg 82%
    18:00 0°C° 0 mm 3 m/s 738 mmHg 83%
    19:00 -1°C° 0 mm 3 m/s 738 mmHg 84%
    20:00 -2°C° 0 mm 3 m/s 738 mmHg 84%
    21:00 -2°C° 0 mm 3 m/s 738 mmHg 85%
    22:00 -2°C° 0 mm 3 m/s 738 mmHg 86%
    23:00 -4°C° 0 mm 3 m/s 738 mmHg 87%

    Après-demain, 25 Mars, Lundi

    Heure Température Précipitation Vent Pression Humidité
    00:00 -4°C° 0 mm 3 m/s 738 mmHg 88%
    01:00 -4°C° 0 mm 3 m/s 738 mmHg 88%
    02:00 -5°C° 0 mm 3 m/s 738 mmHg 89%
    03:00 -5°C° 0 mm 3 m/s 738 mmHg 89%
    04:00 -5°C° 0 mm 3 m/s 738 mmHg 89%
    05:00 -5°C° 0 mm 3 m/s 738 mmHg 89%
    06:00 -4°C° 0 mm 3 m/s 738 mmHg 87%
    07:00 -2°C° 0 mm 3 m/s 738 mmHg 84%
    08:00 -2°C° 0 mm 3 m/s 738 mmHg 82%
    09:00 -1°C° 0 mm 3 m/s 738 mmHg 81%
    10:00 0°C° 0 mm 3 m/s 738 mmHg 80%
    11:00 +1°C° 0 mm 3 m/s 738 mmHg 79%
    12:00 +1°C° 0.1 mm 3 m/s 738 mmHg 78%
    13:00 +2°C° 0.1 mm 3 m/s 738 mmHg 76%
    14:00 +2°C° 0.1 mm 3 m/s 738 mmHg 74%
    15:00 +2°C° 0 mm 3 m/s 738 mmHg 78%
    16:00 +2°C° 0 mm 2 m/s 738 mmHg 81%
    17:00 +3°C° 0 mm 1 m/s 738 mmHg 84%
    18:00 +2°C° 0 mm 1 m/s 738 mmHg 86%
    19:00 +1°C° 0 mm 1 m/s 738 mmHg 88%
    20:00 +1°C° 0 mm 1 m/s 738 mmHg 90%
    21:00 -1°C° 0 mm 2 m/s 738 mmHg 89%
    22:00 -1°C° 0 mm 2 m/s 738 mmHg 88%
    23:00 -2°C° 0 mm 2 m/s 738 mmHg 88%

    26 Mars, Mardi

    Heure Température Précipitation Vent Pression Humidité
    00:00 -2°C° 0 mm 2 m/s 737 mmHg 86%
    01:00 -2°C° 0 mm 3 m/s 737 mmHg 84%
    02:00 -2°C° 0 mm 3 m/s 737 mmHg 83%
    03:00 -2°C° 0 mm 3 m/s 736 mmHg 84%
    04:00 -4°C° 0 mm 3 m/s 736 mmHg 85%
    05:00 -4°C° 0 mm 3 m/s 736 mmHg 86%
    06:00 -2°C° 0 mm 3 m/s 736 mmHg 85%
    07:00 -1°C° 0 mm 3 m/s 736 mmHg 85%
    08:00 0°C° 0 mm 3 m/s 735 mmHg 84%
    09:00 -1°C° 0.1 mm 4 m/s 735 mmHg 82%
    10:00 0°C° 0.1 mm 4 m/s 735 mmHg 80%
    11:00 +1°C° 0.1 mm 4 m/s 735 mmHg 78%
    12:00 +1°C° 0.3 mm 4 m/s 735 mmHg 80%
    13:00 +2°C° 0.3 mm 3 m/s 736 mmHg 81%
    14:00 +1°C° 0.3 mm 3 m/s 736 mmHg 83%
    15:00 -1°C° 0.3 mm 4 m/s 736 mmHg 84%
    16:00 -2°C° 0.3 mm 4 m/s 736 mmHg 85%
    17:00 -4°C° 0.3 mm 5 m/s 736 mmHg 86%
    18:00 -4°C° 0.1 mm 5 m/s 736 mmHg 84%
    19:00 -5°C° 0.1 mm 5 m/s 737 mmHg 83%
    20:00 -5°C° 0.1 mm 4 m/s 737 mmHg 81%
    21:00 -6°C° 0.1 mm 5 m/s 737 mmHg 81%
    22:00 -6°C° 0.1 mm 5 m/s 737 mmHg 81%
    23:00 -6°C° 0.1 mm 5 m/s 737 mmHg 81%

    27 Mars, Mercredi

    Heure Température Précipitation Vent Pression Humidité
    00:00 -7°C° 0.2 mm 5 m/s 737 mmHg 81%
    01:00 -8°C° 0.2 mm 6 m/s 737 mmHg 82%
    02:00 -8°C° 0.2 mm 6 m/s 737 mmHg 83%
    03:00 -8°C° 0.3 mm 6 m/s 737 mmHg 84%
    04:00 -8°C° 0.3 mm 6 m/s 737 mmHg 84%
    05:00 -6°C° 0.3 mm 6 m/s 737 mmHg 85%
    06:00 -7°C° 0.2 mm 7 m/s 738 mmHg 83%
    07:00 -7°C° 0.2 mm 7 m/s 739 mmHg 82%
    08:00 -6°C° 0.2 mm 7 m/s 739 mmHg 80%
    09:00 -6°C° 0.1 mm 7 m/s 740 mmHg 78%
    10:00 -6°C° 0.1 mm 7 m/s 741 mmHg 77%
    11:00 -4°C° 0.1 mm 7 m/s 741 mmHg 76%
    12:00 -4°C° 0 mm 7 m/s 742 mmHg 74%
    13:00 -4°C° 0 mm 6 m/s 743 mmHg 73%
    14:00 -4°C° 0 mm 6 m/s 743 mmHg 71%
    15:00 -4°C° 0 mm 6 m/s 744 mmHg 71%
    16:00 -4°C° 0 mm 5 m/s 745 mmHg 71%
    17:00 -4°C° 0 mm 5 m/s 745 mmHg 71%
    18:00 -4°C° 0 mm 4 m/s 746 mmHg 74%
    19:00 -5°C° 0 mm 4 m/s 746 mmHg 77%
    20:00 -5°C° 0 mm 3 m/s 747 mmHg 80%
    21:00 -6°C° 0 mm 3 m/s 747 mmHg 81%
    22:00 -6°C° 0 mm 3 m/s 747 mmHg 82%
    23:00 -6°C° 0 mm 3 m/s 747 mmHg 83%

    28 Mars, Jeudi

    Heure Température Précipitation Vent Pression Humidité
    00:00 -6°C° 0 mm 3 m/s 747 mmHg 82%
    01:00 -6°C° 0 mm 3 m/s 747 mmHg 81%
    02:00 -7°C° 0 mm 3 m/s 747 mmHg 80%
    03:00 -6°C° 0 mm 3 m/s 746 mmHg 80%
    04:00 -5°C° 0 mm 4 m/s 746 mmHg 79%
    05:00 -5°C° 0 mm 4 m/s 745 mmHg 79%
    06:00 -4°C° 0 mm 4 m/s 745 mmHg 80%
    07:00 -4°C° 0 mm 5 m/s 745 mmHg 80%
    08:00 -4°C° 0 mm 5 m/s 745 mmHg 81%
    09:00 -2°C° 0.1 mm 5 m/s 744 mmHg 80%
    10:00 -2°C° 0.1 mm 5 m/s 744 mmHg 78%
    11:00 -1°C° 0.1 mm 5 m/s 744 mmHg 77%
    12:00 -1°C° 0.1 mm 5 m/s 743 mmHg 78%
    13:00 0°C° 0.1 mm 5 m/s 743 mmHg 78%
    14:00 0°C° 0.1 mm 5 m/s 742 mmHg 78%
    15:00 0°C° 0.4 mm 5 m/s 741 mmHg 80%
    16:00 0°C° 0.4 mm 5 m/s 741 mmHg 82%
    17:00 0°C° 0.4 mm 5 m/s 740 mmHg 84%
    18:00 -1°C° 0.1 mm 5 m/s 740 mmHg 84%
    19:00 -1°C° 0.1 mm 4 m/s 740 mmHg 84%
    20:00 -1°C° 0.1 mm 4 m/s 739 mmHg 84%
    21:00 -1°C° 0.1 mm 5 m/s 739 mmHg 85%
    22:00 -1°C° 0.1 mm 5 m/s 739 mmHg 86%
    23:00 -1°C° 0.1 mm 5 m/s 738 mmHg 87%
    Voir plus